EUS15CD EGPH-GCFV

Flight info

Callsign EUS15CD
Flight time N/A
Altitude 36000
Route GOSAM P600 TRN DCT NIMAT DCT ELTIG DCT LASNO T9 BEGAS DCT DEMOS DCT ASMOV DCT EKLID DCT TAKAV DCT VEDOD UN857 TERTO
Aircraft A321/M-SDE3FGHIRWY/LB1

Departure

Time 2026-04-23 08:44
Airport Edinburgh Airport (EGPH)

Arrival

Time N/A
Airport Fuerteventura Airport (GCFV)
Time Latitude Longitude Altitude Speed Heading
2026-04-23 08:29 55.94702 -3.36609 112 ft 0 kts 89°
2026-04-23 08:34 55.94702 -3.36611 112 ft 1 kts 89°
2026-04-23 08:34 55.94702 -3.36640 112 ft 3 kts 89°
2026-04-23 08:35 55.94702 -3.36675 112 ft 3 kts 88°
2026-04-23 08:35 55.94699 -3.36708 112 ft 3 kts 60°
2026-04-23 08:35 55.94687 -3.36730 114 ft 3 kts 16°
2026-04-23 08:35 55.94670 -3.36735 115 ft 2 kts 359°
2026-04-23 08:36 55.94667 -3.36735 115 ft 0 kts 359°
2026-04-23 08:38 55.94690 -3.36736 114 ft 7 kts 359°
2026-04-23 08:38 55.94736 -3.36737 116 ft 8 kts 358°
2026-04-23 08:38 55.94799 -3.36778 116 ft 10 kts 359°
2026-04-23 08:38 55.94864 -3.36780 116 ft 9 kts 353°
2026-04-23 08:39 55.94925 -3.36853 114 ft 12 kts 298°
2026-04-23 08:39 55.94899 -3.36972 114 ft 10 kts 238°
2026-04-23 08:39 55.94859 -3.37091 114 ft 14 kts 239°
2026-04-23 08:39 55.94795 -3.37281 116 ft 22 kts 239°
2026-04-23 08:40 55.94716 -3.37516 116 ft 22 kts 238°
2026-04-23 08:40 55.94646 -3.37722 114 ft 18 kts 238°
2026-04-23 08:40 55.94584 -3.37904 113 ft 17 kts 238°
2026-04-23 08:40 55.94526 -3.38074 115 ft 15 kts 239°
2026-04-23 08:41 55.94473 -3.38229 112 ft 14 kts 239°
2026-04-23 08:41 55.94425 -3.38372 115 ft 13 kts 239°
2026-04-23 08:41 55.94382 -3.38498 115 ft 11 kts 239°
2026-04-23 08:41 55.94345 -3.38609 114 ft 10 kts 239°
2026-04-23 08:42 55.94313 -3.38704 113 ft 8 kts 239°
2026-04-23 08:42 55.94286 -3.38783 115 ft 7 kts 239°
2026-04-23 08:42 55.94290 -3.38872 115 ft 13 kts 311°
2026-04-23 08:42 55.94376 -3.38967 113 ft 14 kts 334°
2026-04-23 08:43 55.94447 -3.38882 113 ft 13 kts 57°
2026-04-23 08:43 55.94529 -3.38640 113 ft 50 kts 59°
2026-04-23 08:43 55.94838 -3.37728 111 ft 118 kts 59°
2026-04-23 08:43 55.95350 -3.36235 324 ft 148 kts 58°
2026-04-23 08:44 55.95873 -3.34737 1180 ft 141 kts 58°
2026-04-23 08:44 55.96583 -3.33422 1713 ft 155 kts 41°
2026-04-23 08:44 55.97426 -3.32154 2090 ft 164 kts 42°
2026-04-23 08:44 55.98319 -3.30770 2440 ft 177 kts 45°
2026-04-23 08:45 55.99289 -3.29194 2601 ft 200 kts 42°
2026-04-23 08:45 56.00626 -3.28144 2742 ft 225 kts
2026-04-23 08:45 56.02205 -3.28841 2899 ft 251 kts 324°
2026-04-23 08:45 56.03278 -3.31335 3382 ft 261 kts 286°
2026-04-23 08:46 56.03387 -3.34558 4077 ft 264 kts 261°
2026-04-23 08:46 56.03013 -3.37779 4849 ft 266 kts 252°
2026-04-23 08:46 56.02482 -3.40964 5632 ft 269 kts 250°
2026-04-23 08:46 56.01913 -3.44155 6436 ft 270 kts 249°
2026-04-23 08:47 56.01360 -3.47383 7206 ft 273 kts 250°
2026-04-23 08:47 56.00834 -3.50658 7924 ft 275 kts 251°
2026-04-23 08:47 56.00327 -3.53977 8635 ft 278 kts 252°
2026-04-23 08:47 55.99833 -3.57336 9354 ft 281 kts 253°
2026-04-23 08:48 55.99343 -3.60741 10076 ft 284 kts 253°
2026-04-23 08:48 55.98853 -3.64175 10746 ft 288 kts 253°
2026-04-23 08:48 55.98337 -3.67765 10913 ft 310 kts 253°
2026-04-23 08:48 55.97786 -3.71568 11055 ft 331 kts 253°
2026-04-23 08:49 55.97195 -3.75665 11154 ft 351 kts 254°
2026-04-23 08:49 55.96562 -3.80058 11372 ft 367 kts 254°
2026-04-23 08:49 55.95921 -3.84507 11885 ft 373 kts 253°
2026-04-23 08:49 55.95270 -3.89007 12480 ft 376 kts 253°
2026-04-23 08:50 55.94612 -3.93534 13078 ft 379 kts 254°
2026-04-23 08:50 55.93882 -3.98012 13662 ft 381 kts 247°
2026-04-23 08:50 55.92580 -4.02188 14274 ft 382 kts 232°
2026-04-23 08:50 55.90724 -4.05564 14792 ft 384 kts 217°
2026-04-23 08:51 55.88502 -4.08241 15251 ft 388 kts 213°
2026-04-23 08:51 55.86260 -4.10923 15774 ft 390 kts 214°
2026-04-23 08:51 55.84015 -4.13663 16300 ft 392 kts 215°
2026-04-23 08:51 55.81769 -4.16436 16759 ft 395 kts 215°
2026-04-23 08:52 55.79506 -4.19238 17226 ft 398 kts 215°
2026-04-23 08:52 55.77226 -4.22059 17750 ft 400 kts 215°
2026-04-23 08:52 55.74937 -4.24911 18200 ft 404 kts 216°
2026-04-23 08:52 55.72636 -4.27787 18663 ft 406 kts 216°
2026-04-23 08:53 55.70318 -4.30677 19099 ft 409 kts 216°
2026-04-23 08:53 55.67977 -4.33584 19457 ft 413 kts 216°
2026-04-23 08:53 55.65614 -4.36505 19854 ft 415 kts 215°
2026-04-23 08:53 55.63244 -4.39426 20306 ft 416 kts 215°
2026-04-23 08:54 55.60865 -4.42353 20677 ft 419 kts 215°
2026-04-23 08:54 55.58462 -4.45303 21081 ft 421 kts 215°
2026-04-23 08:54 55.56052 -4.48256 21541 ft 422 kts 214°
2026-04-23 08:54 55.53638 -4.51216 21956 ft 424 kts 214°
2026-04-23 08:55 55.51211 -4.54193 22370 ft 426 kts 214°
2026-04-23 08:55 55.48773 -4.57178 22775 ft 428 kts 214°
2026-04-23 08:55 55.46324 -4.60171 23175 ft 430 kts 214°
2026-04-23 08:55 55.43865 -4.63171 23572 ft 432 kts 214°
2026-04-23 08:56 55.41384 -4.66194 23908 ft 435 kts 214°
2026-04-23 08:56 55.38889 -4.69227 24212 ft 438 kts 214°
2026-04-23 08:56 55.36377 -4.72272 24526 ft 440 kts 214°
2026-04-23 08:56 55.33854 -4.75328 24842 ft 441 kts 214°
2026-04-23 08:57 55.31262 -4.78251 25139 ft 443 kts 208°
2026-04-23 08:57 55.28458 -4.80513 25442 ft 445 kts 202°
2026-04-23 08:57 55.25600 -4.82595 25731 ft 447 kts 202°
2026-04-23 08:57 55.22725 -4.84696 26024 ft 448 kts 202°
2026-04-23 08:58 55.20817 -4.86093 26225 ft 450 kts 203°
2026-04-23 08:58 55.17924 -4.88214 26527 ft 451 kts 203°
2026-04-23 08:58 55.15018 -4.90343 26786 ft 454 kts 203°
2026-04-23 08:58 55.12096 -4.92482 27064 ft 456 kts 203°
2026-04-23 08:59 55.09165 -4.94625 27363 ft 457 kts 202°
2026-04-23 08:59 55.06237 -4.96760 27795 ft 455 kts 202°
2026-04-23 08:59 55.03318 -4.98885 28232 ft 453 kts 202°
2026-04-23 08:59 55.00415 -5.00991 28629 ft 452 kts 202°
2026-04-23 09:00 54.97514 -5.03089 29013 ft 451 kts 202°
2026-04-23 09:00 54.94617 -5.05177 29396 ft 450 kts 202°
2026-04-23 09:00 54.91730 -5.07257 29784 ft 449 kts 203°
2026-04-23 09:00 54.88852 -5.09332 30142 ft 448 kts 203°
2026-04-23 09:01 54.85973 -5.11403 30525 ft 447 kts 203°
2026-04-23 09:01 54.83100 -5.13467 30798 ft 447 kts 204°
2026-04-23 09:01 54.80228 -5.15530 31084 ft 447 kts 204°
2026-04-23 09:01 54.77365 -5.17584 31386 ft 446 kts 204°
2026-04-23 09:02 54.74493 -5.19638 31646 ft 447 kts 203°
2026-04-23 09:02 54.71621 -5.21684 31959 ft 446 kts 204°
2026-04-23 09:02 54.68751 -5.23723 32262 ft 445 kts 204°
2026-04-23 09:02 54.65883 -5.25760 32513 ft 446 kts 203°
2026-04-23 09:03 54.63019 -5.27798 32820 ft 445 kts 204°
2026-04-23 09:03 54.60152 -5.29837 33080 ft 446 kts 204°
2026-04-23 09:03 54.57284 -5.31874 33329 ft 446 kts 204°
2026-04-23 09:03 54.54411 -5.33911 33631 ft 446 kts 203°
2026-04-23 09:04 54.51578 -5.35911 33878 ft 446 kts 203°
2026-04-23 09:04 54.48703 -5.37932 34163 ft 446 kts 203°
2026-04-23 09:04 54.45840 -5.39940 34489 ft 444 kts 204°
2026-04-23 09:04 54.42976 -5.41947 34711 ft 444 kts 203°
2026-04-23 09:05 54.40117 -5.43956 34923 ft 444 kts 204°
2026-04-23 09:05 54.37265 -5.45959 35199 ft 443 kts 204°
2026-04-23 09:05 54.34406 -5.47967 35328 ft 445 kts 203°
2026-04-23 09:05 54.31539 -5.49978 35508 ft 446 kts 204°
2026-04-23 09:06 54.28672 -5.51979 35723 ft 445 kts 203°
2026-04-23 09:06 54.25802 -5.53974 35929 ft 445 kts 203°
2026-04-23 09:06 54.22932 -5.55969 36154 ft 445 kts 204°
2026-04-23 09:06 54.20069 -5.57958 36380 ft 444 kts 204°
2026-04-23 09:07 54.14342 -5.61926 36466 ft 443 kts 204°
2026-04-23 09:07 54.08629 -5.65866 36462 ft 442 kts 203°
2026-04-23 09:08 54.02937 -5.69787 36466 ft 441 kts 202°
2026-04-23 09:08 53.97253 -5.73714 36466 ft 440 kts 206°
2026-04-23 09:09 53.91917 -5.78803 36470 ft 440 kts 211°
2026-04-23 09:09 53.86644 -5.84092 36465 ft 441 kts 211°
2026-04-23 09:10 53.78711 -5.91989 36444 ft 441 kts 211°
2026-04-23 09:11 53.73451 -5.97214 36444 ft 442 kts 211°
2026-04-23 09:11 53.68155 -6.02472 36439 ft 442 kts 211°
2026-04-23 09:12 53.62850 -6.07706 36435 ft 442 kts 211°
2026-04-23 09:12 53.57543 -6.12931 36426 ft 442 kts 212°
2026-04-23 09:13 53.52230 -6.18139 36426 ft 442 kts 212°
2026-04-23 09:13 53.46914 -6.23356 36435 ft 442 kts 211°
2026-04-23 09:14 53.41606 -6.28536 36452 ft 441 kts 211°
2026-04-23 09:14 53.36302 -6.33692 36452 ft 440 kts 211°
2026-04-23 09:15 53.31006 -6.38827 36424 ft 440 kts 211°
2026-04-23 09:15 53.25713 -6.43949 36417 ft 439 kts 211°
2026-04-23 09:16 53.20426 -6.49037 36410 ft 439 kts 211°
2026-04-23 09:16 53.15131 -6.54128 36411 ft 439 kts 210°
2026-04-23 09:17 53.09838 -6.59214 36405 ft 439 kts 211°
2026-04-23 09:17 53.04546 -6.64286 36411 ft 439 kts 210°
2026-04-23 09:18 52.99258 -6.69330 36410 ft 438 kts 210°
2026-04-23 09:18 52.93981 -6.74341 36403 ft 437 kts 210°
2026-04-23 09:19 52.88706 -6.79345 36403 ft 437 kts 210°
2026-04-23 09:19 52.83432 -6.84332 36397 ft 436 kts 210°
2026-04-23 09:20 52.78160 -6.89300 36386 ft 436 kts 210°
2026-04-23 09:20 52.72897 -6.94247 36390 ft 435 kts 210°
2026-04-23 09:21 52.67668 -6.99149 36384 ft 435 kts 210°
2026-04-23 09:21 52.62405 -7.04066 36392 ft 435 kts 209°
2026-04-23 09:22 52.57140 -7.08967 36387 ft 434 kts 209°
2026-04-23 09:22 52.51885 -7.13852 36384 ft 434 kts 209°
2026-04-23 09:23 52.46625 -7.18732 36374 ft 434 kts 209°
2026-04-23 09:23 52.41369 -7.23592 36377 ft 434 kts 209°
2026-04-23 09:24 52.36115 -7.28440 36380 ft 433 kts 209°